TimeEDT,TemperatureF,Dew PointF,Humidity,Sea Level PressureIn,VisibilityMPH,Wind Direction,Wind SpeedMPH,Gust SpeedMPH,PrecipitationIn,Events,Conditions,WindDirDegrees,DateUTC
12:51 AM,82.0,73.0,74,30.04,7.0,SSW,15.0,-,N/A,,Clear,200,2013-09-11 04:51:00
1:51 AM,81.0,72.0,74,30.04,7.0,SSW,9.2,-,N/A,,Clear,210,2013-09-11 05:51:00
2:51 AM,80.1,72.0,76,30.04,7.0,SSW,10.4,-,N/A,,Clear,210,2013-09-11 06:51:00
3:51 AM,79.0,72.0,79,30.04,7.0,SSW,10.4,-,N/A,,Clear,200,2013-09-11 07:51:00
4:51 AM,78.1,71.1,79,30.04,7.0,SSW,8.1,-,N/A,,Clear,200,2013-09-11 08:51:00
5:51 AM,78.1,71.1,79,30.05,7.0,SSW,10.4,-,0.00,,Clear,200,2013-09-11 09:51:00
6:51 AM,78.1,70.0,76,30.05,7.0,SSW,8.1,-,N/A,,Clear,210,2013-09-11 10:51:00
7:51 AM,78.1,70.0,76,30.07,6.0,South,8.1,-,N/A,,Haze,190,2013-09-11 11:51:00
8:51 AM,80.1,70.0,71,30.07,6.0,SSW,10.4,-,N/A,,Haze,200,2013-09-11 12:51:00
9:51 AM,82.0,71.1,69,30.06,7.0,SSW,10.4,-,N/A,,Partly Cloudy,200,2013-09-11 13:51:00
10:51 AM,82.9,71.1,67,30.06,7.0,SW,13.8,-,N/A,,Mostly Cloudy,220,2013-09-11 14:51:00
11:51 AM,86.0,73.0,65,30.05,8.0,SSW,10.4,-,N/A,,Clear,200,2013-09-11 15:51:00
12:51 PM,86.0,71.1,61,30.04,8.0,SW,9.2,-,N/A,,Partly Cloudy,220,2013-09-11 16:51:00
1:51 PM,87.1,70.0,57,30.03,10.0,SSW,10.4,-,N/A,,Clear,210,2013-09-11 17:51:00
2:51 PM,89.1,66.9,48,30.00,10.0,SW,10.4,20.7,N/A,,Clear,220,2013-09-11 18:51:00
3:51 PM,90.0,69.1,50,29.97,10.0,SW,10.4,-,N/A,,Clear,220,2013-09-11 19:51:00
4:51 PM,90.0,68.0,48,29.95,10.0,SW,8.1,-,N/A,,Clear,230,2013-09-11 20:51:00
5:51 PM,88.0,69.1,53,29.95,10.0,SSW,10.4,-,N/A,,Clear,200,2013-09-11 21:51:00
6:51 PM,86.0,70.0,59,29.96,10.0,SSW,6.9,-,N/A,,Clear,200,2013-09-11 22:51:00
7:51 PM,82.9,70.0,65,29.93,9.0,SSW,4.6,-,N/A,,Clear,210,2013-09-11 23:51:00
8:51 PM,81.0,69.1,67,29.96,10.0,South,8.1,-,N/A,,Clear,180,2013-09-12 00:51:00
9:51 PM,80.1,69.1,69,29.96,10.0,South,11.5,-,N/A,,Clear,180,2013-09-12 01:51:00
10:37 PM,73.4,66.2,78,30.05,10.0,WNW,15.0,26.5,N/A,,Mostly Cloudy,300,2013-09-12 02:37:00
10:48 PM,73.4,66.2,78,30.04,10.0,WNW,11.5,19.6,0.00,Rain,Light Rain,300,2013-09-12 02:48:00
10:51 PM,72.0,66.9,84,30.04,10.0,West,9.2,19.6,0.00,Rain,Light Rain,280,2013-09-12 02:51:00
10:57 PM,71.6,66.2,83,30.04,1.2,WNW,21.9,33.4,0.00,Rain,Heavy Rain,300,2013-09-12 02:57:00
11:02 PM,69.8,66.2,88,30.04,0.8,NW,15.0,33.4,0.35,Rain,Heavy Rain,310,2013-09-12 03:02:00
11:10 PM,69.8,66.2,88,30.03,2.5,Calm,Calm,-,0.48,Rain,Light Rain,0,2013-09-12 03:10:00
11:16 PM,71.6,66.2,83,30.03,10.0,NNW,6.9,-,0.48,Rain,Light Rain,330,2013-09-12 03:16:00
11:33 PM,71.6,66.2,83,30.01,10.0,SSE,3.5,-,0.48,Thunderstorm,Mostly Cloudy,150,2013-09-12 03:33:00
11:42 PM,69.8,66.2,88,30.00,10.0,SSE,5.8,-,0.48,,Scattered Clouds,150,2013-09-12 03:42:00
11:51 PM,70.0,66.9,90,29.98,10.0,SSE,8.1,-,0.48,,Partly Cloudy,150,2013-09-12 03:51:00